Location: Kampong Paya Jaras Dalam
(3.1833°N, 101.5500°E)
Time: 06:05:49
(UTC+00:00)

ARIANE DEB (SPELDA) - Pass Details

Date: 15 May 2026
Orbit: 348 x 31608 km, 3.7° (Epoch: 7 June)

Event Time Altitude Azimuth Distance (km) Brightness Sun altitude
Rises 12:54:47 0° 272° (W) 2,398 6.8 -23.5°
Reaches altitude 10° 12:56:04 10° 272° (W) 1,771 5.8 -23.8°
Maximum altitude 12:59:25 89° 186° (S) 933 3.3 -24.5°
Enters shadow 13:02:01 43° 93° (E) 1,836 4.4 -25.1°
